Other Public Products
Issued by NWS Grand Forks, ND

Home | Current Version | Previous Version | Graphics & Text | Print | Product List | Glossary On
Versions: 1 2 3 4 5 6 7 8 9 10 11 12 13 14 15 16 17 18 19 20 21 22 23 24 25 26 27 28 29 30 31 32 33 34 35 36 37 38 39 40 41 42 43 44 45 46 47 48 49 50
036
FPUS83 KFGF 212031
OPUFGF
PRAIRIE TO PINES WEATHER ROUNDUP
NATIONAL WEATHER SERVICE EASTERN NORTH DAKOTA/GRAND FORKS ND
200 PM CST SAT JAN 21 2017

 **SATELLITE DATA USED TO AUGMENT SKY COVER AT AUTOMATED STATIONS**
 *****  WEATHER ACROSS EASTERN NORTH DAKOTA  *****

CITY           SKY/WX    TMP DP  RH WIND       PRES   REMARKS
GRAND FORKS    CLOUDY    36  33  89 CALM      29.42R
GRAND FORKS AF CLOUDY    36  34  93 CALM      29.42R
GRAND CITY NWS NOT AVBL
BUXTON           N/A     35  35  99 SE3         N/A
DEVILS LAKE    LGT RAIN  34  34 100 S3        29.40R FOG
FARGO          CLOUDY    39  35  86 SE5       29.40S
WAHPETON ARPT  CLOUDY    34  32  93 E5        29.40S
$$

 *****  WEATHER ACROSS CENTRAL AND WESTERN NORTH DAKOTA  *****

CITY           SKY/WX    TMP DP  RH WIND       PRES   REMARKS
JAMESTOWN      FOG       33  33 100 SE3       29.37R VSB 1/4
BISMARCK       CLOUDY    31  28  89 W6        29.40R FOG
MINOT          CLOUDY    31  28  89 S6        29.36R
MINOT AFB      CLOUDY    29  26  91 SW7       29.35S WCI  22
GARRISON         N/A     26  24  92 SW6       29.36R WCI  19
WILLISTON      CLOUDY    31  25  78 W10       29.37R WCI  22
DICKINSON      FAIR      34  26  72 W15       29.34R WCI  24
HETTINGER      FAIR      34  26  72 NW12      29.38R
$$

 *****  OTHER OBSERVATIONS NORTHEAST NORTH DAKOTA  *****

CITY           SKY/WX    TMP DP  RH WIND       PRES   REMARKS
WALHALLA       NOT AVBL
LANGDON        NOT AVBL
CAVALIER       CLOUDY    34  34 100 SE5       29.43R FOG
GRAFTON        CLOUDY    34  34 100 CALM      29.45R
CANDO          NOT AVBL
FORT TOTTEN      N/A     34  34 100 S5        29.95S
ROLLA            N/A    N/A N/A N/A MISG        N/A
RUGBY            N/A     32  32 100 S5        29.38R
 ***** THE ABOVE OBSERVATIONS ARE NON NWS ARE NOT QUALITY
        CONTROLLED AND MAY MIS-REPORT RAIN FOR SNOW...
$$

 *****  OTHER OBSERVATIONS SOUTHEAST NORTH DAKOTA *****

CITY           SKY/WX    TMP DP  RH WIND       PRES   REMARKS
COOPERSTOWN    DRIZZLE   34  34 100 SE7       29.39S
VALLEY CITY    FOG       32  32 100 S7        29.40R VSB 1/2
OAKES          NOT AVBL
GWINNER        CLOUDY    34  34 100 SE5       29.38R VSB 1/2
SHEYENNE NWR     N/A     34  34 100 E7        29.95S
BUFFALO          N/A     33  32  96 NE5         N/A
WYNDMERE         N/A     36  36 100 E3          N/A
 ***** THE ABOVE OBSERVATIONS ARE NON NWS ARE NOT QUALITY
       CONTROLLED AND MAY MIS-REPORT RAIN FOR SNOW...
$$

  *****  WEATHER ACROSS NORTHERN MINNESOTA  *****

CITY           SKY/WX    TMP DP  RH WIND       PRES   REMARKS
FLAG ISLAND    CLOUDY    34  34 100 SE6       29.47S
WARROAD        CLOUDY    34  30  86 E6        29.47R FOG
ROSEAU         CLOUDY    37  32  81 E8        29.46R
HALLOCK        DRIZZLE   37  36  93 E5        29.44R
THF RVR FALLS    N/A     37  34  87 E8        29.43S
HALSTAD          N/A     35  34  94 E5          N/A
FOSSTON        CLOUDY    36  34  93 CALM      29.41S
BAUDETTE       CLOUDY    35  33  92 SE5       29.46S
WASKISH        CLOUDY    37  36  93 E5        29.45R
CROOKSTON      CLOUDY    37  36  93 E3        29.43R
$$
  *****  WEATHER ACROSS CENTRAL AND WEST MINNESOTA  *****

CITY           SKY/WX    TMP DP  RH WIND       PRES   REMARKS
BEMIDJI        CLOUDY    33  33 100 E7        29.42S
PARK RAPIDS    CLOUDY    37  33  85 E3        29.40S
WADENA         CLOUDY    34  34 100 CALM      29.40R FOG
DETROIT LAKES  CLOUDY    36  34  93 SE5       29.41S
MOORHEAD       CLOUDY    36  34  93 E3        29.41S
FERGUS FALLS   CLOUDY    37  37 100 SE3       29.44R
ELBOW LAKE     CLOUDY    34  34 100 SE3       29.40R FOG
MORRIS MN      RAIN      36  36 100 E6        29.38R VSB 1/4
STAPLES        CLOUDY    36  36 100 E3        29.41R FOG
WHEATON        FOG       43  43 100 E6        29.40S VSB 1/2
$$
  *****  WEATHER ELSEWHERE ACROSS MINNESOTA  *****

CITY           SKY/WX    TMP DP  RH WIND       PRES   REMARKS
DULUTH         CLOUDY    35  34  96 E15       29.42F FOG
INTRNTL FALLS  CLOUDY    36  33  89 E6        29.47S
ELY            CLOUDY    36  34  93 E5        29.46S
CLOQUET        CLOUDY    36  34  93 E10       29.42S FOG
BRAINERD       CLOUDY    35  35 100 NE6       29.41R FOG
HIBBING        LGT RAIN  34  34 100 E6        29.43F
ALEXANDRIA     CLOUDY    35  34  96 E8        29.39R FOG
SAINT CLOUD    FOG       35  35 100 E5        29.40R VSB 1/2
MINNEAPOLIS    CLOUDY    37  35  92 SE5       29.40R
$$

  *****  WEATHER ACROSS SOUTH DAKOTA  *****

CITY           SKY/WX    TMP DP  RH WIND       PRES   REMARKS
SIOUX FALLS    CLOUDY    31  29  92 W8        29.39R WCI  23
BROOKINGS      CLOUDY    32  30  93 W9        29.36R WCI  24
WATERTOWN      FOG       33  33 100 W7        29.35R VSB 1
HURON          CLOUDY    31  28  89 W7        29.40R WCI  24
SISSETON         N/A     35  35 100 S7        29.37S
ABERDEEN       CLOUDY    32  26  78 SW6       29.38S
MITCHELL       CLOUDY    33  29  85 W12       29.40S WCI  24
PIERRE         FAIR      28  26  92 NW5       29.39R WCI  23
MOBRIDGE       CLOUDY    29  25  85 NW6       29.36R WCI  23
RAPID CITY     FAIR      40  31  70 S5        29.40S
$$

  *****  SOME WEATHER IN NEARBY STATES *****

CITY           SKY/WX    TMP DP  RH WIND       PRES   REMARKS
GLASGOW MT     FAIR      24  20  84 NW8       29.40S WCI  15
GREAT FALLS MT FAIR      31  21  66 W6        29.44R
CHEYENNE WY    FAIR      35  20  54 S7        29.37S
SCOTTSBLUFF NE FAIR      42  27  55 CALM      29.40F
OMAHA NE       FAIR      50  38  63 S8        29.43S
DES MOINES IA  CLOUDY    47  41  80 SW13      29.44S
DAVENPORT IA   CLOUDY    45  42  89 W12       29.46S
CHICAGO IL     FAIR      58  46  64 S13G21    29.44F
EAU CLAIRE WI  FOG       36  36 100 SE3       29.39S VSB 1/2
LA CROSSE WI   FOG       43  39  86 CALM      29.40S VSB 1/4
$$

  *****  SOME NATIONAL WEATHER *****

CITY           SKY/WX    TMP DP  RH WIND       PRES   REMARKS
LA GUARDIA NY  FAIR      50  43  77 SW8       29.81R
RALEIGH NC     FOG       54  52  93 E5        29.81F VSB 1/8
ATLANTA GA     PTSUNNY   62  56  80 VRB3      29.63S
NEW ORLEANS LA PTSUNNY   76  68  76 SE6       29.59F
OKLAHOMA CITY  PTSUNNY   62  39  42 S8        29.39F
ALBUQUERQUE NM PTSUNNY   45  26  47 W20G29    29.48F
SALT LAKE CITY CLOUDY    34  30  85 N6        29.59R FOG
LOS ANGELES CA FAIR      58  45  62 W23G30    29.94R
BOISE ID       PTSUNNY   36  33  89 SE7       29.59R
SEATTLE WA     PTSUNNY   51  37  58 N3        29.39S
$$

*** WEATHER ACROSS MANITOBA...SASKATCHEWAN AND ONTARIO ***
                ***ONTARIO***

CITY           SKY/WX    TMP DP  RH WIND       PRES   REMARKS
GERALDTON      DRIZZLE   34  34 100 E5        29.60R
THUNDER BAY    CLOUDY    34  34 100 E8        29.55F FOG
SIOUX LOOKOUT  CLOUDY    36  34  93 E3        29.51S FOG
TORONTO        CLOUDY    43  41  93 S5        29.72R FOG
BIG TROUT LK   FLURRIES  28  28 100 E7        29.68F WCI  21
PICKLE LAKE    FLURRIES  34  32  93 E8        29.58R
DRYDEN         CLOUDY    36  34  93 E5        29.48F
KENORA         CLOUDY    34  34 100 SE7       29.48R
$$
                *** MANITOBA***

CITY           SKY/WX    TMP DP  RH WIND       PRES   REMARKS
BRANDON        FOG       34  32  93 SE7       29.39R VSB 1/2
DAUPHIN        CLOUDY    34  32  93 E7        29.41S FOG
ISLAND LAKE    LGT RAIN  32  32 100 E6        29.57S
PILOT MOUND      N/A     32  32 100 SE7         N/A
THE PAS        LGT SNOW  34  32  93 SE9       29.45R FOG
THOMPSON       LGT SNOW  30  28  93 E8        29.59R FOG     WCI  23
WINNIPEG       DRIZZLE   36  34  93 E7        29.45S
LYNN LAKE      LGT SNOW  28  28 100 NE9       29.57S VSB 1   WCI  20
CHURCHILL      CLOUDY    18  16  93 SE17      29.83R WCI   2
GILLAM         LGT SNOW  28  27  93 E7        29.68S FOG     WCI  21
$$
                ***SASKATCHEWAN***

CITY           SKY/WX    TMP DP  RH WIND       PRES   REMARKS
ESTEVAN        FOG       21  19  93 W3        29.35  VSB 1/8
KINDERSLEY     FOG       27  27 100 NW6       29.43R VSB 3/8 WCI  20
LLOYDMINSTER   FOG       27  25  93 N7        29.48S VSB 1/2 WCI  19
PRINCE ALBERT  LGT SNOW  27  23  86 NE8       29.42S VSB 1   WCI  18
REGINA         CLOUDY    25  25 100 NW9       29.35R FOG     WCI  15
YORKTON        LGT SNOW  32  30  93 SE7       29.37R   C1F1C2F2C3F3C4F4C5F5C6F6C7F7C8F8C9F9CaFaCbFbCcFcCdFdCe!



USA.gov is the U.S. government's official web portal to all federal, state and local government web resources and services.